20080529,20719
20080530,20803
20080602,20631
20080603,20500
20080604,20601
20080605,20629
20080606,20846
20080609,20794
20080610,21061
20080611,21041
20080612,20966
20080613,21061
20080616,20994
20080617,21052
20080618,21045
20080619,21115
20080620,21110
20080623,21040
20080624,21084
20080625,21009
20080626,21174
20080627,21047
20080630,20977
20080701,20944
20080702,20917
20080703,20783
20080704,20803
20080707,20733
20080708,20842
20080709,20912
20080710,20865
20080711,20977
20080714,21023
20080715,21076
20080716,20892
20080717,20815
20080718,21096
20080722,21212
20080723,21286
20080724,21199
20080725,21104
20080728,21260
20080729,21106
20080730,21157
20080731,21030
20080801,20942
20080804,20938
20080805,21119
20080806,21000
20080807,21126
20080808,21008
20080811,20535
20080812,20354
20080813,20244
20080814,20339
20080815,20244
20080818,20126
20080819,20023
20080820,20017
20080821,20112
20080822,19945
20080825,20105
20080826,19876
20080827,19724
20080828,19732
20080829,19275
20080901,19078
20080902,19008
20080903,18933
20080904,18520
20080905,18011
20080908,18146
20080909,17890
20080910,17581
20080911,17479
20080912,17254
20080916,16902
20080917,16929
20080918,16517
20080919,16356
20080922,16438
20080924,16568
20080925,16590
20080926,16570
20080929,16484
20080930,15680
20081001,15926
20081002,15670
20081003,15277
20081006,15086
20081007,14394
20081008,14349
20081009,13971
20081010,13641
20081014,13941
20081015,13723
20081016,13328
20081017,13303
20081020,13082
20081021,12617
20081022,12260
20081023,11495
20081024,11210
20081027,10401
20081028,10148
20081029,10862
20081030,11393
20081031,11581
20081104,11378
20081105,11728
20081106,11802
20081107,11532
20081110,11793
20081111,11509
20081112,11126
20081113,10639
20081114,10822
20081117,10678
20081118,10630
20081119,10448
20081120,10248
20081121,9943
20081125,10176
20081126,10118
20081127,10054
20081128,10218
20081201,9996
20081202,9798
20081203,9697
20081204,9751
20081205,9655
20081208,9582
20081209,9690
20081210,9719
20081211,9832
20081212,9790
20081215,9792
20081216,9714
20081217,9724
20081218,9619
20081219,9905
20081222,9439
20081224,9507
20081225,9343
20081226,9430
20081229,9287
20081230,9211
20090105,9446
20090106,9530
20090107,9725
20090108,9617
20090109,9395
20090113,8683
20090114,8609
20090115,8445
20090116,8335
20090119,8267
20090120,7937
20090121,7919
20090122,7909
20090123,8016
20090126,7902
20090127,8016
20090128,7969
20090129,7936
20090130,7673
20090202,7452
20090203,7350
20090204,7335
20090205,7268
20090206,7392
20090209,7509
20090210,7449
20090212,7554
20090213,7749
20090216,7632
20090217,7517
20090218,7279
20090219,7332
20090220,7505
20090223,7330
20090224,7375
20090225,7600
20090226,7685
20090227,7744
20090302,7633
20090303,7583
20090304,7622
20090305,7764
20090306,7780
20090309,7721
20090310,7798
20090311,7908
20090312,7819
20090313,7899
20090316,7973
20090317,8000
20090318,8053
20090319,7991
20090323,8319
20090324,8547
20090325,8547
20090326,8532
20090327,8731
20090330,8543
20090331,8424
20090401,8457
20090402,8494
20090403,8818
20090406,8866
20090407,8894
20090408,8830
20090409,8662
20090410,8923
20090413,8870
20090414,8903
20090415,8779
20090416,8915
20090417,9017
20090420,8952
20090421,8754
20090422,8592
20090423,8601
20090424,8761
20090427,8710
20090428,8613
20090430,8866
20090501,9026
20090507,9183
20090508,9447
20090511,9421
20090512,9297
20090513,9294
20090514,9243
20090515,9241
20090518,9016
20090519,9136
20090520,9192
20090521,9184
20090522,9299
20090525,9337
20090526,9397
20090527,9273
20090528,9357
20090529,9446
20090601,9289
20090602,9449
20090603,9461
20090604,9389
20090605,9447
20090608,9462
20090609,9304
20090610,9213
20090611,9422
20090612,9361
20090615,9378
20090616,9130
20090617,9059
20090618,9013
20090619,9109
20090622,9038
20090623,8855
20090624,8897
20090625,8875
20090626,8869
20090629,8810
20090630,8869
20090701,8935
20090702,9001
20090703,8882
20090706,8854
20090707,8743
20090708,8598
20090709,8364
20090710,8377
20090713,8077
20090714,7997
20090715,8198
20090716,8368
20090717,8356
20090721,8605
20090722,8573
20090723,8563
20090724,8707
20090727,8776
20090728,8861
20090729,8746
20090730,8583
20090731,8677
20090803,8616
20090804,8750
20090805,8713
20090806,8641
20090807,8709
20090810,8697
20090811,8582
20090812,8331
20090813,8224
20090814,8335
20090817,8248
20090818,8103
20090819,8165
20090820,8104
20090821,8137
20090824,8170
20090825,8243
20090826,8216
20090827,8164
20090828,8194
20090831,8047
20090901,8015
20090902,7983
20090903,7899
20090904,8070
20090907,8100
20090908,8088
20090909,8121
20090910,8177
20090911,8236
20090914,8175
20090915,8139
20090916,8185
20090917,8297
20090918,8414
20090924,8471
20090925,8342
20090928,8189
20090929,8284
20090930,8306
20091001,8316
20091002,8333
20091005,8328
20091006,8342
20091007,8411
20091008,8479
20091009,8583
20091013,8598
20091014,8639
20091015,8672
20091016,8849
20091019,8757
20091020,8756
20091021,8843
20091022,8930
20091023,8995
20091026,9037
20091027,8977
20091028,8829
20091029,8652
20091030,8804
20091102,8693
20091104,8613
20091105,8669
20091106,8752
20091109,8685
20091110,8770
20091111,8752
20091112,8823
20091113,8786
20091116,8671
20091117,8688
20091118,8641
20091119,8700
20091120,8619
20091124,8532
20091125,8520
20091126,8385
20091127,8141
20091130,8105
20091201,8105
20091202,8215
20091203,8214
20091204,8290
20091207,8349
20091208,8187
20091209,7905
20091210,7907
20091211,7928
20091214,8052
20091215,8023
20091216,8067
20091217,8048
20091218,7865
20091221,8013
20091222,8046
20091224,8178
20091225,8324
20091228,8350
20091229,8292
20091230,8202
20100104,8224
20100105,8211
20100106,8289
20100107,8241
20100108,8357
20100112,8415
20100113,8255
20100114,8245
20100115,8217
20100118,8093
20100119,8070
20100120,8056
20100121,8012
20100122,7903
20100125,7772
20100126,7714
20100127,7548
20100128,7585
20100129,7542
20100201,7567
20100202,7649
20100203,7655
20100204,7699
20100205,7512
20100208,7338
20100209,7339
20100210,7416
20100212,7447
20100215,7430
20100216,7366
20100217,7447
20100218,7489
20100219,7535
20100222,7579
20100223,7480
20100224,7383
20100225,7361
20100226,7310
20100301,7294
20100302,7347
20100303,7334
20100304,7341
20100305,7416
20100308,7471
20100309,7437
20100310,7418
20100311,7534
20100312,7595
20100315,7638
20100316,7520
20100317,7568
20100318,7599
20100319,7563
20100323,7448
20100324,7459
20100325,7539
20100326,7630
20100329,7627
20100330,7589
20100331,7655
20100401,7722
20100402,7788
20100405,7801
20100406,7776
20100407,7696
20100408,7613
20100409,7556
20100412,7571
20100413,7583
20100414,7622
20100415,7645
20100416,7540
20100419,7430
20100420,7428
20100421,7363
20100422,7311
20100423,7239
20100426,7303
20100427,7187
20100428,6976
20100430,7030
20100506,6771
20100507,6454
20100510,6503
20100511,6613
20100512,6606
20100513,6701
20100514,6678
20100517,6568
20100518,6498
20100519,6455
20100520,6424
20100521,6163
20100524,6120
20100525,6117
20100526,6036
20100527,6089
20100528,6282
20100531,6306
20100601,6214
20100602,6194
20100603,6262
20100604,6293
20100607,6119
20100608,6068
20100609,6040
20100610,6059
20100611,6133
20100614,6136
20100615,6121
20100616,6208
20100617,6198
20100618,6231
20100621,6189
20100622,6257
20100623,6175
20100624,6123
20100625,6090
20100628,6040
20100629,5991
20100630,5882
20100701,5879
20100702,5895
20100705,5864
20100706,5825
20100707,5856
20100708,5898
20100709,5975
20100712,5990
20100713,5991
20100714,6035
20100715,5938
20100716,5925
20100720,5844
20100721,5854
20100722,5775
20100723,5871
20100726,5917
20100727,5878
20100728,5940
20100729,5894
20100730,5870
20100802,5845
20100803,5897
20100804,5867
20100805,5902
20100806,5871
20100809,5836
20100810,5837
20100811,5749
20100812,5665
20100813,5695
20100816,5658
20100817,5617
20100818,5662
20100819,5624
20100820,5649
20100823,5613
20100824,5546
20100825,5440
20100826,5423
20100827,5433
20100830,5510
20100831,5427
20100901,5384
20100902,5407
20100903,5436
20100906,5440
20100907,5419
20100908,5353
20100909,5362
20100910,5355
20100913,5354
20100914,5343
20100915,5453
20100916,5412
20100917,5380
20100921,5377
20100922,5364
20100924,5310
20100927,5348
20100928,5387
20100929,5381
20100930,5355
20101001,5316
20101004,5282
20101005,5282
20101006,5320
20101007,5351
20101008,5290
20101012,5253
20101013,5226
20101014,5208
20101015,5197
20101018,5111
20101019,5078
20101020,5025
20101021,4986
20101022,5006
20101025,5031
20101026,5003
20101027,5011
20101028,4977
20101029,4930
20101101,4861
20101102,4877
20101104,4914
20101105,4920
20101108,4925
20101109,4881
20101110,4906
20101111,4943
20101112,4943
20101115,4891
20101116,4893
20101117,4863
20101118,4830
20101119,4895
20101122,4877
20101124,4797
20101125,4765
20101126,4815
20101129,4678
20101130,4681
20101201,4571
20101202,4626
20101203,4641
20101206,4596
20101207,4582
20101208,4654
20101209,4677
20101210,4682
20101213,4678
20101214,4681
20101215,4665
20101216,4665
20101217,4680
20101220,4653
20101221,4614
20101222,4622
20101224,4617
20101227,4612
20101228,4631
20101229,4597
20101230,4525
20110104,4543
20110105,4537
20110106,4611
20110107,4609
20110111,4553
20110112,4614
20110113,4660
20110114,4655
20110117,4654
20110118,4638
20110119,4636
20110120,4614
20110121,4592
20110124,4560
20110125,4576
20110126,4548
20110127,4535
20110128,4575
20110131,4488
20110201,4472
20110202,4476
20110203,4516
20110204,4513
20110207,4537
20110208,4565
20110209,4550
20110210,4545
20110214,4571
20110215,4545
20110216,4574
20110217,4594
20110218,4574
20110221,4580
20110222,4552
20110223,4527
20110224,4507
20110225,4524
20110228,4511
20110301,4538
20110302,4559
20110303,4611
20110304,4675
20110307,4679
20110308,4676
20110309,4708
20110310,4677
20110311,4641
20110314,4567
20110315,4564
20110316,4486
20110317,4368
20110318,4501
20110322,4548
20110323,4552
20110324,4535
20110325,4551
20110328,4587
20110329,4596
20110330,4627
20110331,4632
20110401,4667
20110404,4732
20110405,4741
20110406,4789
20110407,4824
20110408,4810
20110411,4842
20110412,4759
20110413,4718
20110414,4674
20110415,4679
20110418,4638
20110419,4576
20110420,4600
20110421,4595
20110422,4564
20110425,4576
20110426,4560
20110427,4596
20110428,4638
20110502,4613
20110506,4549
20110509,4497
20110510,4486
20110511,4547
20110512,4536
20110513,4523
20110516,4491
20110517,4479
20110518,4496
20110519,4527
20110520,4547
20110523,4514
20110524,4448
20110525,4472
20110526,4462
20110527,4436
20110530,4441
20110531,4443
20110601,4470
20110602,4442
20110603,4448
20110606,4440
20110607,4423
20110608,4440
20110609,4428
20110610,4414
20110613,4380
20110614,4366
20110615,4397
20110616,4373
20110617,4336
20110620,4323
20110621,4320
20110622,4331
20110623,4304
20110624,4300
20110627,4282
20110628,4245
20110629,4273
20110630,4287
20110701,4319
20110704,4320
20110705,4321
20110706,4316
20110707,4294
20110708,4317
20110711,4270
20110712,4200
20110713,4137
20110714,4117
20110715,4134
20110719,4103
20110720,4122
20110721,4109
20110722,4149
20110725,4139
20110726,4139
20110727,4153
20110728,4143
20110729,4138
20110801,4153
20110802,4115
20110803,4087
20110804,4179
20110805,4115
20110808,4007
20110809,3863
20110810,3724
20110811,3776
20110812,3663
20110815,3749
20110816,3816
20110817,3837
20110818,3827
20110819,3813
20110822,3767
20110823,3809
20110824,3823
20110825,3800
20110826,3826
20110829,3817
20110830,3827
20110831,3807
20110901,3829
20110902,3821
20110905,3789
20110906,3745
20110907,3755
20110908,3739
20110909,3719
20110912,3659
20110913,3605
20110914,3617
20110915,3559
20110916,3569
20110920,3460
20110921,3392
20110922,3433
20110926,3273
20110927,3180
20110928,3235
20110929,3261
20110930,3258
20111003,3240
20111004,3173
20111005,3138
20111006,3141
20111007,3186
20111011,3304
20111012,3306
20111013,3391
20111014,3388
20111017,3429
20111018,3420
20111019,3380
20111020,3402
20111021,3357
20111024,3361
20111025,3423
20111026,3428
20111027,3427
20111028,3510
20111031,3633
20111101,3599
20111102,3530
20111104,3540
20111107,3553
20111108,3536
20111109,3562
20111110,3517
20111111,3503
20111114,3500
20111115,3478
20111116,3443
20111117,3426
20111118,3401
20111121,3396
20111122,3351
20111124,3334
20111125,3303
20111128,3318
20111129,3360
20111130,3368
20111201,3398
20111202,3426
20111205,3410
20111206,3407
20111207,3366
20111208,3353
20111209,3323
20111212,3294
20111213,3286
20111214,3259
20111215,3260
20111216,3251
20111219,3225
20111220,3221
20111221,3223
20111222,3237
20111226,3280
20111227,3292
20111228,3265
20111229,3205
20111230,3190
20120104,3195
20120105,3185
20120106,3182
20120110,3190
20120111,3211
20120112,3201
20120113,3214
20120116,3185
20120117,3188
20120118,3205
20120119,3216
20120120,3247
20120123,3234
20120124,3288
20120125,3338
20120126,3368
20120127,3384
20120130,3381
20120131,3330
20120201,3332
20120202,3336
20120203,3347
20120206,3349
20120207,3363
20120208,3417
20120209,3427
20120210,3452
20120213,3413
20120214,3405
20120215,3442
20120216,3433
20120217,3457
20120220,3498
20120221,3514
20120222,3528
20120223,3557
20120224,3554
20120227,3644
20120228,3620
20120229,3647
20120301,3666
20120302,3659
20120305,3667
20120306,3675
20120307,3590
20120308,3616
20120309,3673
20120312,3685
20120313,3660
20120314,3727
20120315,3746
20120316,3741
20120319,3752
20120321,3749
20120322,3726
20120323,3682
20120326,3689
20120327,3763
20120328,3750
20120329,3693
20120330,3659
20120402,3692
20120403,3659
20120404,3709
20120405,3563
20120406,3535
20120409,3482
20120410,3494
20120411,3417
20120412,3432
20120413,3460
20120416,3437
20120417,3421
20120418,3442
20120419,3450
20120420,3472
20120423,3457
20120424,3434
20120425,3468
20120426,3474
20120427,3475
20120501,3400
20120502,3423
20120507,3378
20120508,3352
20120509,3334
20120510,3306
20120511,3338
20120514,3334
20120515,3286
20120516,3239
20120517,3192
20120518,3143
20120521,3098
20120522,3129
20120523,3142
20120524,3080
20120525,3075
20120528,3046
20120529,3044
20120530,3024
20120531,2957
20120601,2877
20120604,2837
20120605,2870
20120606,2910
20120607,3014
20120608,3038
20120611,3005
20120612,2991
20120613,2976
20120614,3028
20120615,3030
20120618,3028
20120619,3022
20120620,3034
20120621,3028
20120622,2999
20120625,3001
20120626,2968
20120627,2989
20120628,2987
20120629,2953
20120702,3055
20120703,3037
20120704,3078
20120705,3085
20120706,3039
20120709,2991
20120710,2974
20120711,2990
20120712,3020
20120713,3011
20120717,3023
20120718,3059
20120719,3049
20120720,3102
20120723,3067
20120724,2984
20120725,2951
20120726,2960
20120727,3002
20120730,3041
20120731,3022
20120801,3027
20120802,3030
20120803,2993
20120806,3069
20120807,3100
20120808,3133
20120809,3103
20120810,3110
20120813,3062
20120814,3068
20120815,3081
20120816,3090
20120817,3100
20120820,3069
20120821,3071
20120822,3101
20120823,3077
20120824,3081
20120827,3066
20120828,3066
20120829,3055
20120830,3032
20120831,2999
20120903,3009
20120904,3004
20120905,3017
20120906,3015
20120907,3079
20120910,3069
20120911,3083
20120912,3072
20120913,3086
20120914,3123
20120918,3194
20120919,3166
20120920,3126
20120921,3124
20120924,3123
20120925,3109
20120926,3093
20120927,3077
20120928,3091
20121001,3096
20121002,3111
20121003,3128
20121004,3140
20121005,3174
20121009,3122
20121010,3132
20121011,3116
20121012,3149
20121015,3129
20121016,3172
20121017,3185
20121018,3207
20121019,3202
20121022,3207
20121023,3214
20121024,3147
20121025,3153
20121026,3177
20121029,3136
20121030,3137
20121031,3136
20121101,3150
20121102,3172
20121105,3161
20121106,3129
20121107,3154
20121108,3138
20121109,3126
20121112,3110
20121113,3105
20121114,3077
20121115,3111
20121116,3139
20121119,3136
20121120,3175
20121121,3186
20121122,3222
20121126,3254
20121127,3232
20121128,3233
20121129,3211
20121130,3257
20121203,3261
20121204,3251
20121205,3248
20121206,3273
20121207,3262
20121210,3274
20121211,3276
20121212,3286
20121213,3338
20121214,3334
20121217,3333
20121218,3304
20121219,3345
20121220,3335
20121221,3357
20121225,3372
20121226,3393
20121227,3406
20121228,3487
20130104,3520
20130107,3544
20130108,3508
20130109,3485
20130110,3304
20130111,3343
20130115,3348
20130116,3289
20130117,3279
20130118,3334
20130121,3301
20130122,3288
20130123,3189
20130124,3178
20130125,3243
20130128,3245
20130129,3202
20130130,3220
20130131,3216
20130201,3217
20130204,3230
20130205,3183
20130206,3236
20130207,3209
20130208,3200
20130212,3211
20130213,3178
20130214,3157
20130215,3125
20130218,3153
20130219,3143
20130220,3126
20130221,3117
20130222,3073
20130225,3098
20130226,3051
20130227,3003
20130228,3032
20130301,3025
20130304,3054
20130305,3032
20130306,3032
20130307,3020
20130308,3030
20130311,3044
20130312,3070
20130313,3049
20130314,3013
20130315,3000
20130318,2974
20130319,2969
20130321,2956
20130322,2929
20130325,2915
20130326,2882
20130327,2894
20130328,2862
20130329,2850
20130401,2858
20130402,2821
20130403,2815
20130404,2749
20130405,2862
20130408,2932
20130409,2981
20130410,2991
20130411,3005
20130412,2996
20130415,2941
20130416,2841
20130417,2884
20130418,2820
20130419,2848
20130422,2883
20130423,2873
20130424,2879
20130425,2880
20130426,2895
20130430,2873
20130501,2837
20130502,2814
20130507,2902
20130508,2888
20130509,2875
20130510,2930
20130513,2951
20130514,2944
20130515,2927
20130516,2913
20130517,2911
20130520,2924
20130521,2920
20130522,2929
20130523,2926
20130524,2891
20130527,2845
20130528,2852
20130529,2854
20130530,2797
20130531,2797
20130603,2752
20130604,2725
20130605,2725
20130606,2673
20130607,2607
20130610,2597
20130611,2606
20130612,2519
20130613,2491
20130614,2490
20130617,2537
20130618,2521
20130619,2519
20130620,2503
20130621,2455
20130624,2483
20130625,2453
20130626,2460
20130627,2419
20130628,2441
20130701,2478
20130702,2456
20130703,2477
20130704,2451
20130705,2456
20130708,2464
20130709,2456
20130710,2477
20130711,2445
20130712,2465
20130716,2485
20130717,2480
20130718,2491
20130719,2508
20130722,2500
20130723,2496
20130724,2501
20130725,2513
20130726,2468
20130729,2411
20130730,2416
20130731,2408
20130801,2404
20130802,2426
20130805,2439
20130806,2391
20130807,2382
20130808,2358
20130809,2380
20130812,2358
20130813,2363
20130814,2378
20130815,2375
20130816,2367
20130819,2361
20130820,2362
20130821,2349
20130822,2344
20130823,2369
20130826,2356
20130827,2340
20130828,2306
20130829,2315
20130830,2326
20130902,2312
20130903,2328
20130904,2314
20130905,2322
20130906,2321
20130909,2309
20130910,2319
20130911,2346
20130912,2341
20130913,2344
20130917,2371
20130918,2388
20130919,2388
20130920,2439
20130924,2410
20130925,2400
20130926,2362
20130927,2370
20130930,2274
20131001,2277
20131002,2272
20131003,2267
20131004,2265
20131007,2268
20131008,2251
20131009,2246
20131010,2260
20131011,2288
20131015,2293
20131016,2281
20131017,2305
20131018,2299
20131021,2300
20131022,2295
20131023,2312
20131024,2300
20131025,2300
20131028,2289
20131029,2279
20131030,2282
20131031,2289
20131101,2273
20131105,2265
20131106,2248
20131107,2257
20131108,2235
20131111,2243
20131112,2223
20131113,2225
20131114,2227
20131115,2246
20131118,2254
20131119,2246
20131120,2238
20131121,2231
20131122,2220
20131125,2243
20131126,2234
20131127,2217
20131128,2218
20131129,2229
20131202,2225
20131203,2222
20131204,2205
20131205,2212
20131206,2213
20131209,2245
20131210,2251
20131211,2238
20131212,2226
20131213,2233
20131216,2208
20131217,2208
20131218,2179
20131219,2216
20131220,2177
20131224,2202
20131225,2200
20131226,2214
20131227,2214
20131230,2229
20140106,2162
20140107,2153
20140108,2168
20140109,2169
20140110,2170
20140114,2128
20140115,2142
20140116,2144
20140117,2118
20140120,2096
20140121,2094
20140122,2072
20140123,2081
20140124,2047
20140127,2003
20140128,1995
20140129,2000
20140130,1948
20140131,1963
20140203,1943
20140204,1909
20140205,1942
20140206,1948
20140207,1969
20140210,1977
20140212,1979
20140213,1961
20140214,1950
20140217,1936
20140218,1902
20140219,1895
20140220,1869
20140221,1879
20140224,1889
20140225,1891
20140226,1865
20140227,1859
20140228,1842
20140303,1799
20140304,1792
20140305,1791
20140306,1789
20140307,1778
20140310,1770
20140311,1757
20140312,1740
20140313,1721
20140314,1693
20140317,1663
20140318,1671
20140319,1658
20140320,1693
20140324,1687
20140325,1694
20140326,1708
20140327,1710
20140328,1719
20140331,1729
20140401,1758
20140402,1787
20140403,1779
20140404,1763
20140407,1770
20140408,1756
20140409,1730
20140410,1734
20140411,1731
20140414,1725
20140415,1705
20140416,1688
20140417,1697
20140418,1724
20140421,1716
20140422,1711
20140423,1717
20140424,1710
20140425,1705
20140428,1669
20140430,1685
20140501,1680
20140502,1676
20140507,1663
20140508,1701
20140509,1710
20140512,1711
20140513,1733
20140514,1738
20140515,1741
20140516,1739
20140519,1736
20140520,1738
20140521,1744
20140522,1761
20140523,1779
20140526,1792
20140527,1786
20140528,1777
20140529,1767
20140530,1761
20140602,1763
20140603,1760
20140604,1767
20140605,1769
20140606,1776
20140609,1794
20140610,1798
20140611,1810
20140612,1796
20140613,1786
20140616,1784
20140617,1759
20140618,1758
20140619,1769
20140620,1775
20140623,1784
20140624,1774
20140625,1791
20140626,1796
20140627,1808
20140630,1785
20140701,1770
20140702,1743
20140703,1761
20140704,1765
20140707,1758
20140708,1745
20140709,1754
20140710,1766
20140711,1763
20140714,1750
20140715,1745
20140716,1735
20140717,1713
20140718,1662
20140722,1660
20140723,1656
20140724,1672
20140725,1660
20140728,1633
20140729,1592
20140730,1575
20140731,1590
20140801,1580
20140804,1569
20140805,1569
20140806,1556
20140807,1531
20140808,1519
20140811,1516
20140812,1542
20140813,1540
20140814,1551
20140815,1563
20140818,1558
20140819,1571
20140820,1568
20140821,1568
20140822,1589
20140825,1587
20140826,1586
20140827,1585
20140828,1575
20140829,1542
20140901,1513
20140902,1486
20140903,1494
20140904,1514
20140905,1529
20140908,1526
20140909,1536
20140910,1545
20140911,1539
20140912,1533
20140916,1496
20140917,1495
20140918,1511
20140919,1523
20140922,1525
20140924,1521
20140925,1551
20140926,1529
20140929,1516
20140930,1503
20141001,1494
20141002,1481
20141003,1480
20141006,1469
20141007,1467
20141008,1452
20141009,1451
20141010,1441
20141014,1413
20141015,1404
20141016,1400
20141017,1395
20141020,1406
20141021,1398
20141022,1404
20141023,1394
20141024,1394
20141027,1380
20141028,1374
20141029,1368
20141030,1359
20141031,1407
20141104,1399
20141105,1389
20141106,1358
20141107,1306
20141110,1298
20141111,1333
20141112,1325
20141113,1335
20141114,1308
20141117,1292
20141118,1290
20141119,1297
20141120,1306
20141121,1327
20141125,1377
20141126,1330
20141127,1291
20141128,1245
20141201,1227
20141202,1194
20141203,1142
20141204,1140
20141205,1114
20141208,1150
20141209,1142
20141210,1130
20141211,1088
20141212,1070
20141215,1044
20141216,964
20141217,794
20141218,929
20141219,1004
20141222,1098
20141224,1192
20141225,1237
20141226,1252
20141229,1227
20141230,1148
20150105,2246
20150106,2109
20150107,1998
20150108,2019
20150109,2143
20150113,2038
20150114,1976
20150115,2036
20150116,2211
20150119,2270
20150120,2317
20150121,2304
20150122,2304
20150123,2367
20150126,2426
20150127,2319
20150128,2508
20150129,2547
20150130,2549
20150202,2683
20150203,2741
20150204,2912
20150205,2844
20150206,3196
20150209,3399
20150210,3562
20150212,3655
20150213,3767
20150216,4121
20150217,4235
20150218,4453
20150219,4596
20150220,4683
20150223,4808
20150224,4790
20150225,5134
20150226,5412
20150227,5776
20150302,5956
20150303,5960
20150304,6055
20150305,6082
20150306,6271
20150309,6430
20150310,6534
20150311,6488
20150312,6614
20150313,7402
20150316,7272
20150317,7342
20150318,7455
20150319,7618
20150320,7713
20150323,7821
20150324,7943
20150325,8187
20150326,8371
20150327,8426
20150330,8476
20150331,8614
20150401,8567
20150402,8684
20150403,8973
20150406,8875
20150407,9042
20150408,9263
20150409,9771
20150410,10198
20150413,9964
20150414,10237
20150415,10436
20150416,10728
20150417,10709
20150420,9998
20150421,9755
20150422,9652
20150423,9882
20150424,10185
20150427,10109
20150428,9996
20150430,10193
20150501,10205
20150507,10265
20150508,10521
20150511,10461
20150512,9199
20150513,9186